Location: Brno
(49.2000°N, 16.6330°E)
Time: 09:59:23
(UTC+02:00)

ISS - Pass Details

Date: 22 May 2021
Orbit: 417 x 422 km, 51.6° (Epoch: 13 June)

Event Time Altitude Azimuth Distance (km) Brightness Sun altitude
Rises 21:20:47 0° 267° (W) 2,361 0.8 -6.2°
Reaches altitude 10° 21:22:54 10° 272° (W) 1,499 -0.1 -6.5°
Maximum altitude 21:26:14 58° 352° (N) 494 -3.1 -6.9°
Drops below altitude 10° 21:29:34 10° 73° (ENE) 1,504 -1.2 -7.3°
Sets 21:31:42 0° 77° (ENE) 2,370 -0.3 -7.5°
